Saltillo, Mexico

6:37 PM CDT on September 28, 2016 (GMT -0500)
Plan De Guadalupe International

Weather History for MMIO - March, 2013

Change the Weather History Date:

Tuesday, March 5, 2013

  Actual Average Record
Temperature  
Mean Temperature 56 °F -  
Max Temperature 67 °F 71 °F 87 °F (2009)
Min Temperature 44 °F 50 °F 29 °F (2015)
Degree Days  
Heating Degree Days 10    
Growing Degree Days 6 (Base 50)    
Moisture  
Dew Point 34 °F    
Average Humidity 41    
Maximum Humidity 66    
Minimum Humidity 10    
Precipitation  
Precipitation 0.00 in - - ()
Sea Level Pressure  
Sea Level Pressure 30.20 in    
Wind  
Wind Speed 11 mph ()    
Max Wind Speed 23 mph    
Max Gust Speed -    
Visibility 7.9 miles    
Events      
Averages and records for this station are not official NWS values.
T = Trace of Precipitation, MM = Missing Value Source: Averaged Metar Reports

Daily Weather History Graph

Daily Weather History Graph

Search for Another Location

Airport or City:

Trip Planner

Search our weather history database for the weather conditions in past years. The results will help you decide how hot, cold, wet, or windy it might be!

Date:

Astronomy

Mar. 05, 2013 Rise Set
Actual Time 7:02 AM CST 6:47 PM CST
Civil Twilight 6:39 AM CST 7:10 PM CST
Nautical Twilight 6:13 AM CST 7:37 PM CST
Astronomical Twilight 5:46 AM CST 8:04 PM CST
Moon 1:51 AM CST (3/5) 12:54 PM CST (3/5)
Length of Visible Light 12h 31m
Length of Day
11h 45m
Last Quarter, 40% of the Moon is Illuminated
Mar 5
Last Quarter
Mar 11
New
Mar 19
First Quarter
Mar 27
Full
Apr 2
Last Quarter

Hourly Weather History & Observations

Time (CST) Temp. Dew Point Humidity Pressure Visibility Wind Dir Wind Speed Gust Speed Precip Events Conditions
2:30 AM 56 °F 15 °F 10% 29.83 in 3 mi SSW 8.9 mph - -   Haze
5:30 AM 54 °F 13 °F 10% 29.96 in 3 mi WSW 8.9 mph - -   Haze
6:00 AM 51.8 °F 35.6 °F 54% 30.13 in 10.0 mi South 11.5 mph - N/A   Clear
6:40 AM 51.8 °F 35.6 °F 54% 30.15 in 10.0 mi South 11.5 mph - N/A   Clear
7:40 AM 57.2 °F 41.0 °F 55% 30.18 in 10.0 mi South 13.8 mph - N/A   Mostly Cloudy
8:30 AM 53 °F 18 °F 14% 30.10 in 11 mi South 6.7 mph - -   Haze
8:40 AM 62.6 °F 41.0 °F 45% 30.21 in 10.0 mi North 11.5 mph - N/A   Mostly Cloudy
9:40 AM 68.0 °F 39.2 °F 35% 30.24 in 10.0 mi North 11.5 mph - N/A   Mostly Cloudy
10:40 AM 69.8 °F 41.0 °F 35% 30.27 in 10.0 mi NNW 13.8 mph - N/A   Mostly Cloudy
11:30 AM 62 °F 22 °F 12% 30.14 in 7 mi SSE 13.4 mph - -   Haze
11:40 AM 69.8 °F 41.0 °F 35% 30.27 in 10.0 mi NNW 20.7 mph - N/A   Mostly Cloudy
12:40 PM 66.2 °F 41.0 °F 40% 30.27 in 8.0 mi NNW 16.1 mph - N/A   Mostly Cloudy
1:40 PM 64.4 °F 39.2 °F 40% 30.26 in 8.0 mi NNW 18.4 mph - N/A   Mostly Cloudy
2:30 PM 60 °F 29 °F 19% 30.08 in 4 mi SSE 15.7 mph - -   Haze
2:40 PM 62.6 °F 39.2 °F 42% 30.23 in 8.0 mi North 13.8 mph - N/A   Mostly Cloudy
3:40 PM 62.6 °F 39.2 °F 42% 30.23 in 8.0 mi NNE 20.7 mph - N/A   Mostly Cloudy
4:40 PM 62.6 °F 39.2 °F 42% 30.23 in 8.0 mi NE 23.0 mph - N/A   Mostly Cloudy
5:30 PM 56 °F 32 °F 28% 30.06 in 4 mi SSE 15.7 mph - -   Haze
5:40 PM 60.8 °F 41.0 °F 48% 30.25 in 8.0 mi NE 17.3 mph - N/A   Mostly Cloudy
6:40 PM 57.2 °F 39.2 °F 51% 30.28 in 8.0 mi NE 17.3 mph - N/A   Mostly Cloudy
7:40 PM 55.4 °F 39.2 °F 54% 30.30 in 8.0 mi North 9.2 mph - N/A   Mostly Cloudy
8:30 PM 48 °F 29 °F 36% 30.12 in 3 mi North 13.4 mph - -   Haze
8:40 PM 53.6 °F 41.0 °F 62% 30.31 in 10.0 mi NE 11.5 mph - N/A   Scattered Clouds
9:40 PM 50.0 °F 37.4 °F 62% 30.33 in 10.0 mi NE 11.5 mph - N/A   Scattered Clouds
10:40 PM 48.2 °F 37.4 °F 66% 30.34 in 10.0 mi NE 9.2 mph - N/A   Scattered Clouds
11:30 PM 44 °F 28 °F 41% 30.19 in 3 mi North 6.7 mph - -   Partly Cloudy
11:40 PM 48.2 °F 37.4 °F 66% 30.34 in 10.0 mi North 9.2 mph - N/A   Clear